Weather History for Cottonwood Pass, CO

Change the Weather History Date:

Tuesday, March 12, 2013

  Actual Average Record
Temperature  
Mean Temperature 36 °F -  
Max Temperature 42 °F - - ()
Min Temperature 30 °F - - ()
Degree Days  
Heating Degree Days 29    
Moisture  
Dew Point 14 °F    
Average Humidity 43    
Maximum Humidity 60    
Minimum Humidity 25    
Precipitation  
Precipitation 0.00 in - - ()
Sea Level Pressure  
Sea Level Pressure 30.20 in    
Wind  
Wind Speed 14 mph (West)    
Max Wind Speed 26 mph    
Max Gust Speed 40 mph    
Visibility 10 miles    
Events      
T = Trace of Precipitation, MM = Missing Value Source: NWS Daily Summary

Daily Weather History Graph

Daily Weather History Graph

Search for Another Location

Airport:

Trip Planner

Search our weather history database for the weather conditions in past years. The results will help you decide how hot, cold, wet, or windy it might be!

Date:

Astronomy

Mar. 12, 2013 Rise Set
Actual Time 7:20 AM MDT 7:09 PM MDT
Civil Twilight 6:53 AM MDT 7:35 PM MDT
Nautical Twilight 6:22 AM MDT 8:06 PM MDT
Astronomical Twilight 5:51 AM MDT 8:37 PM MDT
Moon 7:29 AM MDT (3/12) 8:25 PM MDT (3/12)
Length of Visible Light 12h 42m
Length of Day
11h 48m
New Moon, 1% of the Moon is Illuminated
Mar 12
New Moon
Mar 19
First Quarter
Mar 27
Full
Apr 2
Last Quarter
Apr 10
New

Hourly Weather History & Observations

Time (MDT) Temp. Windchill Dew Point Humidity Pressure Visibility Wind Dir Wind Speed Gust Speed Precip Events Conditions
12:16 AM 30.2 °F 20.2 °F 17.6 °F 60% 30.07 in 10.0 mi NW 12.7 mph 25.3 mph N/A   Scattered Clouds
12:36 AM 30.2 °F 20.2 °F 17.6 °F 60% 30.07 in 10.0 mi North 12.7 mph 26.5 mph N/A   Scattered Clouds
12:56 AM 32.0 °F 21.6 °F 17.6 °F 55% 30.08 in 10.0 mi NW 15.0 mph 28.8 mph N/A   Mostly Cloudy
1:16 AM 32.0 °F 20.8 °F 17.6 °F 55% 30.08 in 10.0 mi WNW 17.3 mph 39.1 mph N/A   Scattered Clouds
1:36 AM 32.0 °F 19.5 °F 15.8 °F 51% 30.07 in 10.0 mi WNW 21.9 mph 27.6 mph N/A   Scattered Clouds
1:56 AM 32.0 °F 21.6 °F 17.6 °F 55% 30.08 in 10.0 mi West 15.0 mph 35.7 mph N/A   Clear
2:16 AM 32.0 °F 19.5 °F 15.8 °F 51% 30.08 in 10.0 mi West 21.9 mph 34.5 mph N/A   Clear
2:56 AM 32.0 °F 19.2 °F 15.8 °F 51% 30.09 in 10.0 mi WSW 23.0 mph 36.8 mph N/A   Scattered Clouds
3:16 AM 32.0 °F 19.8 °F 17.6 °F 55% 30.09 in 10.0 mi WSW 20.7 mph 38.0 mph N/A   Scattered Clouds
3:36 AM 32.0 °F 22.1 °F 17.6 °F 55% 30.09 in 10.0 mi WSW 13.8 mph 26.5 mph N/A   Mostly Cloudy
3:56 AM 32.0 °F 28.7 °F 17.6 °F 55% 30.10 in 10.0 mi WSW 3.5 mph 19.6 mph N/A   Mostly Cloudy
4:16 AM 30.2 °F 26.7 °F 17.6 °F 60% 30.10 in 10.0 mi North 3.5 mph - N/A   Scattered Clouds
4:36 AM 30.2 °F 23.4 °F 17.6 °F 60% 30.11 in 10.0 mi NW 6.9 mph 16.1 mph N/A   Scattered Clouds
4:56 AM 32.0 °F 22.1 °F 14.0 °F 48% 30.10 in 10.0 mi West 13.8 mph 32.2 mph N/A   Scattered Clouds
5:16 AM 32.0 °F 24.2 °F 12.2 °F 44% 30.11 in 10.0 mi West 9.2 mph 28.8 mph N/A   Clear
5:36 AM 30.2 °F 21.3 °F 12.2 °F 47% 30.12 in 10.0 mi West 10.4 mph 16.1 mph N/A   Clear
5:55 AM 30.2 °F 24.3 °F 12.2 °F 47% 30.12 in 10.0 mi NW 5.8 mph - N/A   Clear
6:16 AM 32.0 °F 23.6 °F 14.0 °F 48% 30.13 in 10.0 mi WSW 10.4 mph 28.8 mph N/A   Scattered Clouds
6:36 AM 30.2 °F 23.4 °F 14.0 °F 51% 30.13 in 10.0 mi West 6.9 mph - N/A   Scattered Clouds
6:56 AM 32.0 °F 22.5 °F 14.0 °F 48% 30.14 in 10.0 mi West 12.7 mph 28.8 mph N/A   Scattered Clouds
7:16 AM 30.2 °F 26.7 °F 14.0 °F 51% 30.15 in 10.0 mi ENE 3.5 mph 16.1 mph N/A   Scattered Clouds
7:56 AM 30.2 °F 26.7 °F 17.6 °F 60% 30.17 in 10.0 mi NNW 3.5 mph - N/A   Overcast
8:16 AM 32.0 °F 26.4 °F 15.8 °F 51% 30.17 in 10.0 mi West 5.8 mph - N/A   Overcast
8:36 AM 32.0 °F 21.2 °F 14.0 °F 48% 30.18 in 10.0 mi West 16.1 mph 21.9 mph N/A   Scattered Clouds
8:56 AM 32.0 °F 21.6 °F 15.8 °F 51% 30.19 in 10.0 mi West 15.0 mph 26.5 mph N/A   Clear
9:16 AM 32.0 °F 18.4 °F 15.8 °F 51% 30.19 in 10.0 mi West 26.5 mph 38.0 mph N/A   Clear
9:35 AM 32.0 °F 19.2 °F 14.0 °F 48% 30.20 in 10.0 mi West 23.0 mph 36.8 mph N/A   Clear
9:56 AM 32.0 °F 19.2 °F 14.0 °F 48% 30.21 in 10.0 mi West 23.0 mph 36.8 mph N/A   Clear
10:16 AM 33.8 °F 22.2 °F 14.0 °F 44% 30.22 in 10.0 mi West 20.7 mph 33.4 mph N/A   Clear
10:36 AM 33.8 °F 22.8 °F 14.0 °F 44% 30.22 in 10.0 mi West 18.4 mph 32.2 mph N/A   Clear
10:55 AM 33.8 °F 22.2 °F 12.2 °F 41% 30.22 in 10.0 mi WSW 20.7 mph 38.0 mph N/A   Clear
11:16 AM 35.6 °F 24.2 °F 12.2 °F 38% 30.23 in 10.0 mi WSW 21.9 mph 36.8 mph N/A   Scattered Clouds
11:36 AM 35.6 °F 25.5 °F 12.2 °F 38% 30.21 in 10.0 mi SW 17.3 mph 31.1 mph N/A   Scattered Clouds
11:56 AM 37.4 °F 28.2 °F 10.4 °F 33% 30.21 in 10.0 mi SW 16.1 mph 28.8 mph N/A   Clear
12:16 PM 37.4 °F 26.6 °F 10.4 °F 33% 30.21 in 10.0 mi WSW 21.9 mph 34.5 mph N/A   Clear
12:36 PM 37.4 °F 27.8 °F 10.4 °F 33% 30.21 in 10.0 mi WSW 17.3 mph 40.3 mph N/A   Clear
12:56 PM 39.2 °F 31.6 °F 10.4 °F 31% 30.20 in 10.0 mi SW 12.7 mph 25.3 mph N/A   Clear
1:16 PM 41.0 °F 31.6 °F 8.6 °F 26% 30.20 in 10.0 mi WSW 20.7 mph 32.2 mph N/A   Clear
1:36 PM 41.0 °F 32.5 °F 10.4 °F 29% 30.21 in 10.0 mi WSW 17.3 mph 27.6 mph N/A   Scattered Clouds
1:56 PM 41.0 °F 32.8 °F 10.4 °F 29% 30.21 in 10.0 mi WSW 16.1 mph 35.7 mph N/A   Scattered Clouds
2:16 PM 41.0 °F 32.8 °F 10.4 °F 29% 30.21 in 10.0 mi SW 16.1 mph 27.6 mph N/A   Scattered Clouds
2:36 PM 42.8 °F 35.8 °F 12.2 °F 29% 30.21 in 10.0 mi WSW 13.8 mph 29.9 mph N/A   Scattered Clouds
2:56 PM 42.8 °F 39.3 °F 8.6 °F 25% 30.22 in 10.0 mi WNW 5.8 mph 32.2 mph N/A   Scattered Clouds
3:16 PM 41.0 °F 32.8 °F 8.6 °F 26% 30.22 in 10.0 mi SW 16.1 mph 31.1 mph N/A   Scattered Clouds
3:36 PM 41.0 °F 32.8 °F 8.6 °F 26% 30.23 in 10.0 mi WSW 16.1 mph 27.6 mph N/A   Clear
3:56 PM 41.0 °F 32.8 °F 10.4 °F 29% 30.23 in 10.0 mi SW 16.1 mph 32.2 mph N/A   Scattered Clouds
4:16 PM 41.0 °F 31.6 °F 10.4 °F 29% 30.24 in 10.0 mi WSW 20.7 mph 31.1 mph N/A   Scattered Clouds
4:36 PM 41.0 °F 33.5 °F 10.4 °F 29% 30.24 in 10.0 mi West 13.8 mph 27.6 mph N/A   Clear
4:56 PM 41.0 °F 35.2 °F 8.6 °F 26% 30.25 in 10.0 mi SW 9.2 mph 24.2 mph N/A   Clear
5:16 PM 41.0 °F 34.3 °F 8.6 °F 26% 30.25 in 10.0 mi WSW 11.5 mph 27.6 mph N/A   Clear
5:36 PM 41.0 °F 33.9 °F 10.4 °F 29% 30.24 in 10.0 mi SSW 12.7 mph 26.5 mph N/A   Clear
5:56 PM 41.0 °F 33.1 °F 10.4 °F 29% 30.25 in 10.0 mi West 15.0 mph 25.3 mph N/A   Clear
6:16 PM 39.2 °F 31.2 °F 10.4 °F 31% 30.25 in 10.0 mi WSW 13.8 mph 27.6 mph N/A   Clear
6:36 PM 37.4 °F 27.2 °F 12.2 °F 36% 30.25 in 10.0 mi WSW 19.6 mph 28.8 mph N/A   Clear
6:56 PM 37.4 °F 27.8 °F 12.2 °F 36% 30.26 in 10.0 mi WSW 17.3 mph 32.2 mph N/A   Clear
7:16 PM 37.4 °F 27.2 °F 10.4 °F 33% 30.27 in 10.0 mi WSW 19.6 mph 31.1 mph N/A   Clear
7:36 PM 37.4 °F 28.2 °F 12.2 °F 36% 30.27 in 10.0 mi West 16.1 mph 29.9 mph N/A   Clear
7:56 PM 37.4 °F 27.8 °F 12.2 °F 36% 30.27 in 10.0 mi WSW 17.3 mph 35.7 mph N/A   Clear
8:15 PM 37.4 °F 28.2 °F 12.2 °F 36% 30.29 in 10.0 mi WSW 16.1 mph 26.5 mph N/A   Clear
8:36 PM 35.6 °F 25.5 °F 14.0 °F 41% 30.29 in 10.0 mi WSW 17.3 mph 27.6 mph N/A   Clear
8:56 PM 35.6 °F 25.5 °F 15.8 °F 44% 30.29 in 10.0 mi West 17.3 mph 28.8 mph N/A   Clear
9:16 PM 35.6 °F 26.2 °F 17.6 °F 48% 30.29 in 10.0 mi West 15.0 mph 27.6 mph N/A   Clear
9:36 PM 33.8 °F 25.3 °F 17.6 °F 52% 30.29 in 10.0 mi West 11.5 mph 16.1 mph N/A   Clear
9:56 PM 33.8 °F 26.4 °F 17.6 °F 52% 30.30 in 10.0 mi NW 9.2 mph 17.3 mph N/A   Clear
10:16 PM 33.8 °F 25.8 °F 17.6 °F 52% 30.31 in 10.0 mi NW 10.4 mph 20.7 mph N/A   Clear
10:36 PM 33.8 °F 24.8 °F 17.6 °F 52% 30.31 in 10.0 mi WNW 12.7 mph 21.9 mph N/A   Clear
10:56 PM 33.8 °F 26.4 °F 17.6 °F 52% 30.31 in 10.0 mi NW 9.2 mph 20.7 mph N/A   Clear
11:56 PM 33.8 °F 24.3 °F 15.8 °F 48% 30.31 in 10.0 mi NW 13.8 mph 25.3 mph N/A   Clear